Wind_Speed
35 37 41 34 24 18 29 32 40 36 27 34 29 23 16 9 7 12 27 24 22 19 15 16 15 14 12 13 13 10 8 7 8 5 4 4 5 6 7 9 11 13 14 15
36 44 39 31 24 20 25 34 41 31 28 27 32 26 18 15 7 5 8 18 19 19 24 22 21 18 15 13 12 11 8 4 5 9 9 8 6 4 4 5 5 7 9 10
38 41 37 31 27 23 25 37 35 35 33 24 27 26 27 21 14 14 14 14 15 16 15 17 18 14 15 14 12 10 8 10 12 13 14 15 15 14 13 11 10 9 9 9
31 35 36 34 29 27 25 31 33 17 18 28 29 12 32 28 24 23 21 22 20 18 18 18 17 15 15 16 16 14 14 14 13 12 11 11 13 15 17 19 20 19 16 13
25 36 30 33 36 31 27 31 30 20 16 17 22 14 30 30 32 30 27 25 22 22 20 18 17 16 14 16 17 19 18 16 16 16 13 10 9 10 12 14 17 19 19 19
26 18 35 33 34 33 31 19 17 11 11 9 25 30 31 34 34 25 27 28 25 24 23 21 20 17 17 16 17 20 20 19 17 16 14 12 10 7 6 7 11 13 15 21
24 30 25 25 34 31 33 25 3 1 4 6 15 22 32 27 30 31 21 16 21 24 27 25 23 21 20 18 16 16 19 18 16 15 13 12 10 7 3 2 6 10 14 17
25 18 34 27 28 35 37 35 14 6 5 6 11 17 32 17 29 20 20 16 19 21 21 29 25 23 20 17 15 15 17 19 17 16 17 15 14 11 8 5 7 11 13 16
22 23 29 37 29 31 31 30 28 24 10 3 8 20 29 26 22 24 32 28 24 22 22 24 25 26 23 21 17 13 13 16 21 20 21 20 18 16 14 11 10 12 14 15
31 12 32 29 34 32 33 31 19 12 5 5 7 11 26 22 21 23 25 22 25 27 22 24 24 23 21 17 18 20 18 17 18 21 24 25 23 22 21 19 16 16 17 17
42 36 23 27 42 46 39 30 27 15 13 7 4 9 18 13 14 18 25 16 21 23 21 17 22 20 17 14 18 19 21 22 23 23 25 29 30 29 28 25 23 20 22 21
23 40 41 38 22 43 45 39 36 29 13 9 14 24 11 19 25 23 14 16 19 20 20 16 16 19 21 22 21 21 22 24 21 27 29 32 35 34 33 31 27 26 25 23
23 28 35 38 43 38 35 44 39 37 32 30 16 22 25 23 20 18 17 19 18 20 22 21 21 21 22 24 25 24 24 22 23 29 33 33 35 36 34 35 32 31 25 23
23 34 35 36 42 36 36 36 27 28 28 27 33 30 33 26 26 18 19 21 20 23 24 20 20 24 25 25 22 22 22 22 26 30 34 37 36 35 35 40 26 28 23 24
13 36 42 48 47 40 31 38 36 36 34 29 34 39 36 25 25 20 24 20 23 25 26 21 17 21 22 21 17 13 16 22 23 24 26 30 34 40 39 42 30 27 22 25
16 26 37 48 47 48 36 25 34 33 30 27 34 36 35 30 24 22 24 23 23 21 18 22 19 24 19 17 16 15 20 21 21 24 23 25 33 39 46 43 33 26 25 26
20 15 38 37 44 45 40 49 46 37 33 36 35 37 37 32 24 22 20 23 23 20 19 24 21 24 19 19 20 23 26 28 30 28 27 29 27 33 45 41 25 29 33 29
22 20 24 42 24 7 39 44 40 37 34 30 33 37 42 31 25 19 21 23 24 23 23 25 25 19 18 20 19 17 17 21 26 30 31 30 34 35 39 46 35 35 32 23
16 16 18 17 25 13 23 25 32 36 32 29 27 29 24 21 17 17 21 27 33 29 28 26 22 20 17 14 11 9 7 12 17 21 24 28 31 33 37 39 24 30 30 26
25 15 15 12 10 8 20 26 26 28 22 21 20 20 23 26 22 17 23 30 38 40 34 31 25 22 16 10 9 7 11 17 20 19 25 24 27 32 32 28 24 31 32 29
16 13 12 10 6 9 23 31 33 20 15 19 20 22 17 19 20 19 18 16 25 34 31 26 23 23 14 12 12 10 11 19 25 23 24 27 31 30 26 28 30 34 35 25
42 15 3 2 3 2 20 30 26 27 18 11 10 18 23 18 17 14 16 23 29 30 27 27 25 15 15 16 15 20 28 32 29 30 29 29 30 29 28 27 33 30 28 30
29 25 10 2 7 5 11 20 32 27 28 24 16 17 19 21 23 28 28 28 26 23 27 27 23 21 24 31 27 35 28 28 29 31 29 30 28 26 23 23 28 35 32 35
24 29 9 9 22 31 35 35 31 27 28 31 25 20 25 24 23 22 23 23 26 24 21 20 30 30 29 29 30 34 38 33 30 32 27 27 23 21 27 32 35 40 36 40
29 29 25 16 22 24 24 25 26 26 24 17 14 19 23 20 17 10 11 15 19 23 24 29 33 35 42 40 42 40 39 27 28 33 27 29 29 29 30 30 37 31 29 21
26 28 31 32 26 24 10 11 12 13 10 2 6 10 14 14 13 21 18 16 22 26 26 20 23 24 27 34 33 28 24 20 19 20 18 15 14 17 16 23 23 28 32 18
Wind_Direction
201 204 206 206 199 210 211 209 209 207 206 212 218 234 248 265 238 225 220 215 215 219 220 214 210 209 218 223 222 216 228 225 234 226 221 223 242 258 264 262 261 269 271 274
207 211 209 209 203 202 202 211 213 214 217 226 224 236 242 248 304 294 230 217 220 224 222 216 207 213 221 221 215 207 207 215 154 130 112 93 65 38 360 334 311 295 296 300
213 213 207 204 202 196 200 211 211 226 235 239 233 247 240 225 219 206 195 193 207 208 204 205 204 196 192 189 185 175 161 147 141 128 109 92 80 72 64 55 43 30 16 3
220 207 215 204 205 205 191 209 211 226 222 216 223 233 241 231 226 226 206 199 192 191 187 185 183 175 164 166 169 162 158 151 147 146 135 118 102 81 67 59 53 46 37 22
210 211 204 209 210 212 223 204 216 229 227 226 215 220 243 246 231 240 239 228 207 196 192 183 181 174 171 173 175 171 166 159 150 140 139 141 122 98 70 50 46 40 32 27
226 219 221 217 217 221 225 207 200 202 221 207 243 218 240 238 244 255 249 241 228 208 198 197 197 192 190 191 193 188 180 172 167 154 147 137 121 98 70 42 31 24 22 16
221 219 214 224 223 223 226 227 214 138 157 208 249 220 242 257 255 250 261 261 245 230 217 209 207 205 209 214 209 205 202 197 197 191 180 177 171 153 133 47 356 356 1 6
219 223 208 209 218 226 229 229 210 186 180 216 217 213 256 257 254 258 255 266 248 240 233 230 223 217 215 224 226 226 228 226 227 226 211 206 207 211 224 258 298 322 338 346
220 231 224 216 221 223 222 229 239 240 265 244 220 252 265 250 247 252 253 256 222 219 218 216 227 231 222 223 233 228 230 237 243 246 226 229 225 232 247 267 284 299 315 326
226 249 235 224 221 227 232 234 222 207 144 219 235 229 243 244 241 252 239 255 222 215 216 216 216 224 230 229 235 241 241 241 249 254 253 248 246 249 255 267 277 285 299 309
233 234 241 223 219 226 227 224 228 228 217 172 202 237 237 235 228 244 242 255 233 219 211 218 221 220 224 228 235 238 240 241 242 245 253 255 257 247 256 264 272 277 287 293
239 239 238 239 238 231 235 235 233 225 225 219 238 242 250 263 254 244 247 246 208 214 207 210 215 218 222 225 224 223 236 245 251 251 251 251 247 255 254 261 269 272 279 282
274 240 230 236 244 237 224 229 232 237 241 237 229 257 263 242 240 248 250 222 224 208 201 204 208 216 227 229 236 240 247 255 257 263 258 255 252 253 258 259 270 269 272 270
252 237 222 226 231 236 239 237 224 227 231 238 250 263 260 249 240 240 241 214 216 206 205 215 213 221 226 228 236 248 252 257 263 269 267 260 257 259 260 261 264 266 258 263
241 215 223 235 236 234 239 237 231 229 238 248 260 256 253 245 238 240 219 217 215 213 212 209 221 214 214 220 227 253 269 269 274 269 267 271 269 260 257 258 256 268 250 263
334 229 225 231 235 231 232 227 225 230 238 256 253 249 243 248 230 235 225 224 215 218 231 232 223 217 230 238 240 268 268 274 274 266 267 262 266 268 259 254 256 270 264 257
304 331 235 240 232 231 231 239 245 238 243 259 250 245 244 235 235 234 230 227 220 228 242 231 227 229 236 232 250 259 263 263 260 261 265 261 261 264 260 248 252 260 254 252
281 299 293 243 239 179 240 240 242 247 245 254 245 244 239 235 233 229 219 226 239 242 237 225 222 226 222 239 247 260 270 272 269 263 260 262 261 265 263 253 283 246 236 237
275 279 292 223 207 221 215 221 227 225 235 244 235 225 209 204 202 219 235 242 237 236 232 224 220 218 225 228 231 251 297 305 295 287 278 266 266 269 265 254 253 235 224 227
274 266 281 262 184 185 211 206 222 203 184 188 186 204 212 212 218 250 262 252 232 229 229 215 217 209 237 224 233 277 319 315 310 302 284 270 258 262 270 257 239 216 215 222
282 319 274 258 196 192 188 183 185 184 186 216 196 206 198 206 212 248 270 254 228 224 207 208 217 211 227 234 248 287 303 317 320 302 282 276 265 264 254 251 233 216 216 228
240 292 236 177 116 176 185 188 193 189 196 186 180 209 221 228 227 239 185 183 185 191 198 199 205 232 255 264 282 295 297 304 298 287 281 274 271 266 255 248 224 216 222 232
210 226 272 66 99 114 158 149 141 153 184 212 224 157 158 170 168 172 179 187 189 195 194 200 218 237 252 271 291 273 290 292 280 281 286 289 289 275 266 273 254 227 230 242
182 200 197 108 111 114 122 129 140 149 156 157 171 200 162 158 159 172 186 193 193 198 213 251 271 276 262 269 282 289 285 289 269 266 271 281 274 273 269 267 251 230 232 256
174 180 191 172 153 135 125 134 138 141 144 143 163 187 190 177 169 200 248 274 273 271 272 263 265 264 275 282 284 287 290 272 270 265 272 265 271 291 288 286 265 244 286 268
180 182 192 201 204 205 206 192 148 138 122 343 253 226 256 253 250 259 262 272 260 261 264 264 269 285 293 282 286 288 280 275 279 283 279 269 271 275 277 284 274 260 257 253
Height
3131 3134 3133 3142 3149 3153 3155 3158 3158 3162 3166 3167 3166 3169 3171 3171 3172 3171 3173 3176 3178 3181 3184 3184 3185 3187 3189 3191 3193 3195 3197 3198 3200 3201 3202 3202 3203 3202 3201 3201 3202 3202 3202 3201
3127 3124 3136 3144 3148 3151 3153 3155 3157 3163 3166 3169 3169 3169 3170 3171 3171 3171 3171 3173 3174 3177 3177 3179 3181 3183 3186 3189 3191 3192 3195 3197 3198 3200 3201 3200 3198 3198 3198 3198 3198 3198 3197 3197
3121 3127 3135 3139 3143 3147 3149 3151 3156 3160 3164 3166 3167 3168 3166 3168 3169 3170 3169 3170 3172 3173 3175 3178 3179 3181 3183 3186 3189 3191 3193 3196 3197 3199 3200 3200 3199 3199 3199 3198 3197 3196 3195 3194
3119 3126 3129 3134 3138 3143 3145 3149 3155 3158 3159 3159 3161 3161 3160 3162 3164 3164 3166 3167 3168 3171 3173 3176 3178 3179 3181 3184 3187 3190 3192 3194 3195 3197 3198 3199 3200 3199 3199 3199 3198 3196 3195 3195
3113 3118 3122 3127 3132 3139 3144 3148 3151 3154 3155 3155 3156 3160 3154 3157 3158 3158 3159 3162 3166 3168 3171 3174 3176 3178 3181 3182 3185 3187 3190 3192 3194 3195 3196 3198 3198 3198 3198 3198 3197 3197 3196 3195
3112 3118 3120 3124 3131 3136 3140 3144 3148 3150 3149 3152 3151 3153 3148 3150 3150 3152 3155 3158 3161 3165 3167 3170 3174 3176 3178 3180 3183 3185 3187 3189 3192 3193 3194 3195 3196 3196 3197 3197 3197 3197 3195 3193
3109 3111 3115 3120 3125 3129 3132 3137 3140 3145 3148 3147 3144 3148 3142 3143 3145 3148 3151 3154 3157 3161 3163 3166 3169 3171 3174 3177 3181 3184 3185 3186 3189 3191 3192 3193 3193 3193 3195 3195 3196 3195 3193 3191
3103 3106 3108 3113 3117 3123 3126 3131 3133 3142 3144 3139 3139 3137 3134 3140 3141 3144 3148 3151 3155 3156 3158 3161 3164 3168 3171 3174 3177 3180 3182 3183 3185 3187 3188 3190 3190 3191 3192 3193 3193 3193 3191 3190
3098 3099 3104 3108 3114 3119 3121 3123 3131 3133 3133 3136 3134 3132 3132 3135 3137 3139 3143 3146 3148 3151 3153 3155 3159 3163 3167 3170 3173 3175 3177 3180 3182 3183 3184 3186 3187 3188 3190 3189 3189 3189 3188 3187
3095 3096 3100 3106 3111 3112 3114 3121 3125 3124 3132 3135 3128 3127 3128 3132 3133 3135 3137 3139 3141 3146 3149 3151 3154 3158 3162 3165 3168 3171 3173 3176 3178 3179 3180 3181 3182 3184 3185 3185 3185 3186 3185 3184
3091 3093 3096 3099 3097 3101 3107 3109 3115 3119 3120 3121 3127 3122 3125 3128 3130 3131 3133 3134 3136 3140 3143 3146 3150 3154 3157 3160 3162 3165 3168 3170 3172 3174 3175 3176 3178 3178 3179 3180 3181 3180 3180 3180
3083 3086 3086 3089 3094 3098 3100 3103 3108 3110 3113 3115 3116 3116 3120 3123 3125 3127 3128 3129 3132 3135 3140 3143 3146 3149 3151 3154 3157 3159 3162 3164 3167 3168 3169 3169 3170 3172 3173 3175 3175 3174 3175 3174
3075 3073 3078 3082 3087 3089 3087 3092 3098 3103 3106 3105 3110 3109 3116 3119 3121 3122 3123 3125 3129 3132 3136 3138 3141 3144 3146 3149 3151 3154 3157 3159 3161 3161 3163 3165 3165 3166 3166 3168 3168 3168 3168 3168
3060 3062 3064 3067 3072 3081 3082 3086 3091 3096 3097 3099 3098 3104 3110 3112 3114 3117 3119 3121 3124 3128 3131 3134 3138 3140 3142 3145 3147 3148 3150 3152 3153 3154 3156 3158 3159 3160 3157 3158 3160 3160 3161 3161
3049 3046 3055 3058 3066 3074 3077 3079 3083 3085 3089 3090 3095 3097 3103 3106 3109 3111 3114 3117 3119 3123 3126 3130 3132 3135 3137 3140 3142 3143 3143 3145 3146 3147 3148 3149 3150 3150 3150 3147 3152 3152 3153 3155
3052 3048 3050 3050 3058 3065 3069 3071 3076 3080 3082 3085 3089 3090 3097 3100 3103 3105 3109 3112 3114 3118 3121 3124 3127 3131 3134 3136 3137 3137 3138 3139 3139 3139 3140 3141 3142 3141 3140 3138 3143 3144 3144 3149
3047 3045 3046 3045 3050 3056 3058 3061 3067 3072 3076 3080 3080 3084 3089 3092 3096 3100 3103 3107 3110 3112 3115 3118 3122 3126 3129 3131 3133 3132 3132 3131 3131 3132 3132 3134 3133 3131 3129 3115 3121 3140 3140 3141
3043 3044 3044 3041 3045 3050 3048 3054 3060 3064 3068 3070 3072 3076 3081 3086 3091 3094 3098 3101 3103 3106 3110 3114 3118 3122 3125 3125 3125 3125 3125 3124 3123 3123 3123 3123 3124 3124 3123 3121 3125 3128 3131 3135
3041 3040 3038 3032 3037 3041 3042 3045 3050 3054 3061 3061 3064 3070 3075 3078 3084 3088 3091 3094 3097 3102 3107 3112 3115 3117 3118 3119 3119 3120 3121 3119 3117 3116 3116 3115 3116 3114 3115 3114 3116 3119 3124 3129
3043 3040 3038 3031 3030 3036 3037 3039 3044 3049 3052 3057 3060 3065 3069 3071 3075 3080 3083 3085 3089 3095 3100 3105 3107 3107 3117 3114 3113 3114 3114 3113 3111 3109 3109 3108 3106 3106 3106 3108 3109 3110 3114 3119
3038 3033 3033 3028 3027 3028 3030 3034 3039 3042 3052 3054 3055 3059 3063 3066 3069 3075 3076 3077 3081 3088 3092 3097 3103 3104 3106 3105 3106 3106 3105 3104 3102 3103 3104 3103 3100 3100 3100 3102 3102 3102 3107 3112
3030 3039 3031 3027 3024 3028 3027 3030 3035 3038 3048 3050 3051 3053 3057 3061 3064 3067 3073 3074 3078 3081 3085 3090 3094 3098 3100 3099 3099 3099 3101 3099 3094 3097 3097 3095 3095 3095 3096 3096 3095 3098 3102 3105
3030 3035 3034 3029 3024 3025 3027 3028 3033 3034 3040 3046 3051 3051 3055 3057 3061 3067 3069 3073 3075 3078 3083 3085 3087 3090 3092 3095 3095 3094 3093 3091 3092 3090 3091 3090 3089 3088 3091 3091 3093 3093 3094 3095
3020 3024 3030 3031 3031 3031 3030 3030 3035 3036 3038 3043 3048 3051 3057 3060 3063 3067 3070 3074 3076 3079 3081 3083 3084 3085 3085 3083 3084 3083 3084 3083 3082 3081 3082 3084 3083 3084 3084 3084 3083 3084 3086 3089
3014 3022 3022 3030 3033 3034 3032 3037 3038 3040 3040 3045 3048 3054 3055 3057 3063 3066 3069 3072 3074 3076 3076 3078 3078 3078 3074 3073 3074 3076 3076 3074 3074 3074 3076 3076 3077 3079 3080 3080 3079 3075 3076 3079
3011 3015 3016 3017 3026 3029 3030 3044 3041 3042 3043 3048 3053 3055 3057 3059 3063 3065 3065 3064 3067 3068 3068 3068 3069 3068 3067 3067 3067 3066 3065 3065 3066 3069 3069 3069 3070 3072 3073 3072 3071 3071 3075 3074